Location: Asheville, NC
(35.6000°N, 82.5500°W)
Time: 09:57:25
(UTC-04:00)

N. Korean satellite - Pass Details

Date: 11 October 2017
Orbit: 459 x 517 km, 97.2° (Epoch: 21 October)

Event Time Altitude Azimuth Distance (km) Brightness Sun altitude
Rises 20:32:09 0° 205° (SSW) 2,565 10.5 -19.6°
Reaches altitude 10° 20:34:56 10° 229° (SW) 1,675 9.9 -20.2°
Maximum altitude 20:37:05 15° 266° (W) 1,383 9.9 -20.6°
Drops below altitude 10° 20:39:13 10° 303° (WNW) 1,663 10.2 -21.0°
Sets 20:41:59 0° 327° (NNW) 2,534 10.8 -21.6°
